Year,Month,Day,Hour,Minute,Value (Times are PST for temperature in C)
2011,07,11,10,51,17.10
2011,07,11,10,54,17.20
2011,07,11,10,55,17.20
2011,07,11,10,56,17.20
2011,07,11,10,57,17.20
2011,07,11,10,58,17.30
2011,07,11,10,59,17.30
2011,07,11,11,00,17.30
2011,07,11,11,01,17.30
2011,07,11,11,02,17.40
2011,07,11,11,03,17.40
2011,07,11,11,04,17.40
2011,07,11,11,05,17.50
2011,07,11,11,06,17.50
2011,07,11,11,07,17.60
2011,07,11,11,08,17.60
2011,07,11,11,09,17.70
2011,07,11,11,10,17.70
2011,07,11,11,11,17.70
2011,07,11,11,12,17.70
2011,07,11,11,13,17.70
2011,07,11,11,14,17.70
2011,07,11,11,15,17.70
2011,07,11,11,16,17.70
2011,07,11,11,17,17.70
2011,07,11,11,18,17.70
2011,07,11,11,19,17.70
2011,07,11,11,20,17.70
2011,07,11,11,21,17.80
2011,07,11,11,22,17.80
2011,07,11,11,23,17.80
2011,07,11,11,24,17.80
2011,07,11,11,25,17.90
2011,07,11,11,26,17.90
2011,07,11,11,27,18.00
2011,07,11,11,28,18.00
2011,07,11,11,29,18.00
2011,07,11,11,30,18.10
2011,07,11,11,31,18.10
2011,07,11,11,32,18.10
2011,07,11,11,33,18.20
2011,07,11,11,34,18.20
2011,07,11,11,35,18.30
2011,07,11,11,36,18.40
2011,07,11,11,37,18.50
2011,07,11,11,38,18.60
2011,07,11,11,39,18.60
2011,07,11,11,40,18.70
2011,07,11,11,41,18.80
2011,07,11,11,42,18.90
2011,07,11,11,43,19.00
2011,07,11,11,44,19.10
2011,07,11,11,45,19.10
2011,07,11,11,46,19.20
2011,07,11,11,47,19.20
2011,07,11,11,48,19.30
2011,07,11,11,49,19.30
2011,07,11,11,50,19.40
2011,07,11,11,51,19.50
2011,07,11,11,52,19.50
2011,07,11,11,53,19.50
2011,07,11,11,54,19.50
2011,07,11,11,55,19.50
2011,07,11,11,56,19.60
2011,07,11,11,57,19.60
2011,07,11,11,58,19.60
2011,07,11,11,59,19.60
2011,07,11,12,00,19.70
2011,07,11,12,01,19.70
2011,07,11,12,02,19.80
2011,07,11,12,03,19.80
2011,07,11,12,04,19.80
2011,07,11,12,05,19.80
2011,07,11,12,06,19.80
2011,07,11,12,07,19.80
2011,07,11,12,08,19.80
2011,07,11,12,09,19.80
2011,07,11,12,10,19.70
2011,07,11,12,11,19.70
2011,07,11,12,12,19.70
2011,07,11,12,13,19.70
2011,07,11,12,14,19.70
2011,07,11,12,15,19.70
2011,07,11,12,16,19.60
2011,07,11,12,17,19.50
2011,07,11,12,18,19.40
2011,07,11,12,19,19.30
2011,07,11,12,20,19.20
2011,07,11,12,21,19.10
2011,07,11,12,22,19.00
2011,07,11,12,23,18.90
2011,07,11,12,24,18.80
2011,07,11,12,25,18.70
2011,07,11,12,26,18.60
2011,07,11,12,27,18.50
2011,07,11,12,28,18.50
2011,07,11,12,29,18.40
2011,07,11,12,30,18.40
2011,07,11,12,31,18.30
2011,07,11,12,32,18.30
2011,07,11,12,33,18.30
2011,07,11,12,34,18.30
2011,07,11,12,35,18.30
2011,07,11,12,36,18.30
2011,07,11,12,37,18.40
2011,07,11,12,38,18.40
2011,07,11,12,39,18.40
2011,07,11,12,40,18.40
2011,07,11,12,41,18.40
2011,07,11,12,42,18.40
2011,07,11,12,43,18.40
2011,07,11,12,44,18.40
2011,07,11,12,45,18.40
2011,07,11,12,46,18.40
2011,07,11,12,47,18.40
2011,07,11,12,48,18.50
2011,07,11,12,49,18.50
2011,07,11,12,50,18.50
2011,07,11,12,51,18.60
2011,07,11,12,52,18.60
2011,07,11,12,53,18.50
2011,07,11,12,54,18.50
2011,07,11,12,55,18.50
2011,07,11,12,56,18.50
2011,07,11,12,57,18.50
2011,07,11,12,58,18.50
2011,07,11,12,59,18.50
2011,07,11,13,00,18.60
2011,07,11,13,01,18.60
2011,07,11,13,02,18.60
2011,07,11,13,03,18.70
2011,07,11,13,04,18.70
2011,07,11,13,05,18.80
2011,07,11,13,06,18.80
2011,07,11,13,07,18.90
2011,07,11,13,08,18.90
2011,07,11,13,09,19.00
2011,07,11,13,10,19.10
2011,07,11,13,11,19.10
2011,07,11,13,12,19.20
2011,07,11,13,13,19.30
2011,07,11,13,14,19.40
2011,07,11,13,15,19.40
2011,07,11,13,16,19.40
2011,07,11,13,17,19.40
2011,07,11,13,18,19.40
2011,07,11,13,19,19.40
2011,07,11,13,20,19.40
2011,07,11,13,21,19.40
2011,07,11,13,22,19.40
2011,07,11,13,23,19.50
2011,07,11,13,24,19.50
2011,07,11,13,25,19.60
2011,07,11,13,26,19.70
2011,07,11,13,27,19.70
2011,07,11,13,28,19.80
2011,07,11,13,29,19.80
2011,07,11,13,30,19.80
2011,07,11,13,31,19.80
2011,07,11,13,32,19.80
2011,07,11,13,33,19.80
2011,07,11,13,34,19.90
2011,07,11,13,35,19.90
2011,07,11,13,36,19.90
2011,07,11,13,37,19.90
2011,07,11,13,38,19.90
2011,07,11,13,39,19.90
2011,07,11,13,40,19.90
2011,07,11,13,41,19.90
2011,07,11,13,42,20.00
2011,07,11,13,43,20.00
2011,07,11,13,44,20.10
2011,07,11,13,45,20.20
2011,07,11,13,46,20.30
2011,07,11,13,47,20.50
2011,07,11,13,48,20.60
2011,07,11,13,49,20.60
2011,07,11,13,50,20.70
2011,07,11,13,51,20.80
2011,07,11,13,52,20.90
2011,07,11,13,53,20.90
2011,07,11,13,54,20.90
2011,07,11,13,55,21.00
2011,07,11,13,56,21.00
2011,07,11,13,57,21.00
2011,07,11,13,58,21.10
2011,07,11,13,59,21.10
2011,07,11,14,00,21.10
2011,07,11,14,01,21.20
2011,07,11,14,02,21.20
2011,07,11,14,03,21.20
2011,07,11,14,04,21.30
2011,07,11,14,05,21.30
2011,07,11,14,06,21.30
2011,07,11,14,07,21.30
2011,07,11,14,08,21.30
2011,07,11,14,09,21.30
2011,07,11,14,10,21.30
2011,07,11,14,11,21.30
2011,07,11,14,12,21.30
2011,07,11,14,13,21.30
2011,07,11,14,14,21.30
2011,07,11,14,15,21.30
2011,07,11,14,16,21.40
2011,07,11,14,17,21.40
2011,07,11,14,18,21.50
2011,07,11,14,19,21.60
2011,07,11,14,20,21.60
2011,07,11,14,21,21.60
2011,07,11,14,22,21.50
2011,07,11,14,23,21.50
2011,07,11,14,24,21.50
2011,07,11,14,25,21.40
2011,07,11,14,26,21.40
2011,07,11,14,27,21.40
2011,07,11,14,28,21.40
2011,07,11,14,29,21.40
2011,07,11,14,30,21.50
2011,07,11,14,31,21.50
2011,07,11,14,32,21.60
2011,07,11,14,33,21.60
2011,07,11,14,34,21.60
2011,07,11,14,35,21.60
2011,07,11,14,36,21.50
2011,07,11,14,37,21.50
2011,07,11,14,38,21.50
2011,07,11,14,39,21.50
2011,07,11,14,40,21.50
2011,07,11,14,41,21.50
2011,07,11,14,42,21.50
2011,07,11,14,43,21.50
2011,07,11,14,44,21.50
2011,07,11,14,45,21.60
2011,07,11,14,46,21.60
2011,07,11,14,47,21.60
2011,07,11,14,48,21.60
2011,07,11,14,49,21.60
2011,07,11,14,50,21.60
2011,07,11,14,51,21.50
2011,07,11,14,52,21.40
2011,07,11,14,53,21.40
2011,07,11,14,59,21.20
2011,07,11,15,04,21.20
2011,07,11,15,05,21.10
2011,07,11,15,06,21.10
2011,07,11,15,07,21.10
2011,07,11,15,08,21.10
2011,07,11,15,09,21.10
2011,07,11,15,10,21.10
2011,07,11,15,11,21.10
2011,07,11,15,12,21.00
2011,07,11,15,13,20.90
2011,07,11,15,14,20.70
2011,07,11,15,15,20.60
2011,07,11,15,16,20.50
2011,07,11,15,17,20.40
2011,07,11,15,18,20.40
2011,07,11,15,19,20.40
2011,07,11,15,20,20.40
2011,07,11,15,21,20.40
2011,07,11,15,22,20.40
2011,07,11,15,23,20.40
2011,07,11,15,24,20.40
2011,07,11,15,25,20.40
2011,07,11,15,26,20.30
2011,07,11,15,27,20.30
2011,07,11,15,28,20.30
2011,07,11,15,29,20.20
2011,07,11,15,30,20.10
2011,07,11,15,31,20.00
2011,07,11,15,32,20.00
2011,07,11,15,33,19.90
2011,07,11,15,34,19.90
2011,07,11,15,35,19.80
2011,07,11,15,36,19.80
2011,07,11,15,37,19.80
2011,07,11,15,38,19.80
2011,07,11,15,39,19.80
2011,07,11,15,40,19.90
2011,07,11,15,41,19.90
2011,07,11,15,42,19.90
2011,07,11,15,43,20.00
2011,07,11,15,44,20.10
2011,07,11,15,45,20.10
2011,07,11,15,46,20.10
2011,07,11,15,47,20.20
2011,07,11,15,48,20.20
2011,07,11,15,49,20.20
2011,07,11,15,50,20.10
2011,07,11,15,51,20.20
2011,07,11,15,52,20.20
2011,07,11,15,53,20.20
2011,07,11,15,54,20.20
2011,07,11,15,55,20.20
2011,07,11,15,56,20.30
2011,07,11,15,57,20.30
2011,07,11,15,58,20.30
2011,07,11,15,59,20.40
2011,07,11,16,00,20.50
2011,07,11,16,01,20.50
2011,07,11,16,02,20.60
2011,07,11,16,03,20.70
2011,07,11,16,04,20.70
2011,07,11,16,05,20.80
2011,07,11,16,06,20.90
2011,07,11,16,07,20.90
2011,07,11,16,08,21.00
2011,07,11,16,09,21.10
2011,07,11,16,10,21.20
2011,07,11,16,11,21.20
2011,07,11,16,12,21.20
2011,07,11,16,13,21.20
2011,07,11,16,14,21.20
2011,07,11,16,15,21.20
2011,07,11,16,16,21.20
2011,07,11,16,17,21.20
2011,07,11,16,18,21.20
2011,07,11,16,19,21.30
2011,07,11,16,20,21.30
2011,07,11,16,21,21.30
2011,07,11,16,22,21.40
2011,07,11,16,23,21.40
2011,07,11,16,24,21.50
2011,07,11,16,25,21.60
2011,07,11,16,26,21.60
2011,07,11,16,27,21.60
2011,07,11,16,28,21.70
2011,07,11,16,29,21.70
2011,07,11,16,30,21.70
2011,07,11,16,31,21.70
2011,07,11,16,32,21.70
2011,07,11,16,33,21.70
2011,07,11,16,34,21.80
2011,07,11,16,35,21.80
2011,07,11,16,36,21.80
2011,07,11,16,37,21.80
2011,07,11,16,38,21.80
2011,07,11,16,39,21.80
2011,07,11,16,40,21.80
2011,07,11,16,41,21.80
2011,07,11,16,42,21.80
2011,07,11,16,43,21.80
2011,07,11,16,44,21.80
2011,07,11,16,45,21.80
2011,07,11,16,46,21.80
2011,07,11,16,47,21.80
2011,07,11,16,48,21.80
2011,07,11,16,49,21.80
2011,07,11,16,50,21.80
2011,07,11,16,51,21.90
2011,07,11,16,52,21.90
2011,07,11,16,53,21.90
2011,07,11,16,54,21.90
2011,07,11,16,55,21.90
2011,07,11,16,56,22.00
2011,07,11,16,57,22.00
2011,07,11,16,58,22.10
2011,07,11,16,59,22.10
2011,07,11,17,00,22.10
2011,07,11,17,01,22.10
2011,07,11,17,02,22.10
2011,07,11,17,03,22.10
2011,07,11,17,04,22.10
2011,07,11,17,05,22.10
2011,07,11,17,06,22.10
2011,07,11,17,07,22.10
2011,07,11,17,08,22.00
2011,07,11,17,09,22.00
2011,07,11,17,10,21.90
2011,07,11,17,11,21.90
2011,07,11,17,12,21.80
2011,07,11,17,13,21.80
2011,07,11,17,14,21.80
2011,07,11,17,15,21.80
2011,07,11,17,16,21.80
2011,07,11,17,17,21.60
2011,07,11,17,18,21.40
2011,07,11,17,19,21.30
2011,07,11,17,20,21.10
2011,07,11,17,21,21.00
2011,07,11,17,22,20.90
2011,07,11,17,23,20.80
2011,07,11,17,24,20.70
2011,07,11,17,25,20.60
2011,07,11,17,26,20.50
2011,07,11,17,27,20.50
2011,07,11,17,28,20.40
2011,07,11,17,29,20.30
2011,07,11,17,30,20.30
2011,07,11,17,31,20.20
2011,07,11,17,32,20.10
2011,07,11,17,33,20.10
2011,07,11,17,34,20.10
2011,07,11,17,35,20.10
2011,07,11,17,36,20.00
2011,07,11,17,37,20.10
2011,07,11,17,38,20.10
2011,07,11,17,39,20.10
2011,07,11,17,40,20.10
2011,07,11,17,41,20.10
2011,07,11,17,42,20.10
2011,07,11,17,43,20.10
2011,07,11,17,44,20.20
2011,07,11,17,45,20.20
2011,07,11,17,46,20.20
2011,07,11,17,47,20.30
2011,07,11,17,48,20.30
2011,07,11,17,49,20.30
2011,07,11,17,50,20.30
2011,07,11,17,51,20.30
2011,07,11,17,52,20.30
2011,07,11,17,53,20.30
2011,07,11,17,54,20.30
2011,07,11,17,55,20.30
2011,07,11,17,56,20.30
2011,07,11,17,57,20.40
2011,07,11,17,58,20.30
2011,07,11,17,59,20.30
2011,07,11,18,00,20.30
2011,07,11,18,01,20.30
2011,07,11,18,02,20.30
2011,07,11,18,03,20.30
2011,07,11,18,04,20.20
2011,07,11,18,05,20.20
2011,07,11,18,06,20.20
2011,07,11,18,07,20.20
2011,07,11,18,08,20.10
2011,07,11,18,09,20.10
2011,07,11,18,10,20.10
2011,07,11,18,11,20.10
2011,07,11,18,12,20.00
2011,07,11,18,13,20.00
2011,07,11,18,14,19.90
2011,07,11,18,15,19.90
2011,07,11,18,16,19.90
2011,07,11,18,17,19.90
2011,07,11,18,18,19.90
2011,07,11,18,19,19.90
2011,07,11,18,20,19.90
2011,07,11,18,21,19.90
2011,07,11,18,22,19.80
2011,07,11,18,23,19.80
2011,07,11,18,24,19.90
2011,07,11,18,25,19.90
2011,07,11,18,26,19.90
2011,07,11,18,27,19.80
2011,07,11,18,28,19.80
2011,07,11,18,29,19.80
2011,07,11,18,30,19.80
2011,07,11,18,31,19.80
2011,07,11,18,32,19.80
2011,07,11,18,33,19.80
2011,07,11,18,34,19.80
2011,07,11,18,35,19.80
2011,07,11,18,36,19.80
2011,07,11,18,37,19.80
2011,07,11,18,38,19.80
2011,07,11,18,39,19.80
2011,07,11,18,40,19.80
2011,07,11,18,41,19.70
2011,07,11,18,42,19.70
2011,07,11,18,43,19.60
2011,07,11,18,44,19.50
2011,07,11,18,45,19.50
2011,07,11,18,46,19.40
2011,07,11,18,47,19.40
2011,07,11,18,48,19.40
2011,07,11,18,49,19.40
2011,07,11,18,50,19.30
2011,07,11,18,51,19.30
2011,07,11,18,52,19.30
2011,07,11,18,53,19.30
2011,07,11,18,54,19.30
2011,07,11,18,55,19.30
2011,07,11,18,56,19.30
2011,07,11,18,57,19.30
2011,07,11,18,58,19.20
2011,07,11,18,59,19.20
2011,07,11,19,00,19.20
2011,07,11,19,01,19.20
2011,07,11,19,02,19.20
2011,07,11,19,03,19.20
2011,07,11,19,04,19.20
2011,07,11,19,05,19.10
2011,07,11,19,06,19.10
2011,07,11,19,07,19.10
2011,07,11,19,08,19.00
2011,07,11,19,09,19.00
2011,07,11,19,10,19.00
2011,07,11,19,11,18.90
2011,07,11,19,12,19.00
2011,07,11,19,13,19.00
2011,07,11,19,14,19.00
2011,07,11,19,15,19.00
2011,07,11,19,16,19.00
2011,07,11,19,17,19.10
2011,07,11,19,18,19.10
2011,07,11,19,19,19.10
2011,07,11,19,20,19.10
2011,07,11,19,21,19.20
2011,07,11,19,22,19.20
2011,07,11,19,23,19.20
2011,07,11,19,24,19.20
2011,07,11,19,25,19.20
2011,07,11,19,26,19.20
2011,07,11,19,27,19.30
2011,07,11,19,28,19.30
2011,07,11,19,29,19.30
2011,07,11,19,30,19.20
2011,07,11,19,31,19.20
2011,07,11,19,32,19.20
2011,07,11,19,33,19.20
2011,07,11,19,34,19.20
2011,07,11,19,35,19.10
2011,07,11,19,36,19.10
2011,07,11,19,37,19.10
2011,07,11,19,38,19.10
2011,07,11,19,39,19.10
2011,07,11,19,40,19.00
2011,07,11,19,41,19.00
2011,07,11,19,42,19.00
2011,07,11,19,43,18.90
2011,07,11,19,44,18.90
2011,07,11,19,45,18.90
2011,07,11,19,46,18.90
2011,07,11,19,47,18.90
2011,07,11,19,48,18.90
2011,07,11,19,49,18.90
2011,07,11,19,50,18.90
2011,07,11,19,51,18.80
2011,07,11,19,52,18.80
2011,07,11,19,53,18.80
2011,07,11,19,54,18.80
2011,07,11,19,55,18.70
2011,07,11,19,56,18.70
2011,07,11,19,57,18.70
2011,07,11,19,58,18.60
2011,07,11,19,59,18.60
2011,07,11,20,00,18.60
2011,07,11,20,01,18.60
2011,07,11,20,02,18.50
2011,07,11,20,03,18.50
2011,07,11,20,04,18.50
2011,07,11,20,05,18.40
2011,07,11,20,06,18.40
2011,07,11,20,07,18.40
2011,07,11,20,08,18.40
2011,07,11,20,09,18.30
2011,07,11,20,10,18.30
2011,07,11,20,11,18.30
2011,07,11,20,12,18.20
2011,07,11,20,13,18.20
2011,07,11,20,14,18.20
2011,07,11,20,15,18.20
2011,07,11,20,16,18.10
2011,07,11,20,17,18.10
2011,07,11,20,18,18.10
2011,07,11,20,19,18.00
2011,07,11,20,20,18.00
2011,07,11,20,21,18.00
2011,07,11,20,22,18.00
2011,07,11,20,23,18.00
2011,07,11,20,24,18.00
2011,07,11,20,25,18.00
2011,07,11,20,26,18.00
2011,07,11,20,27,18.00
2011,07,11,20,28,18.00
2011,07,11,20,29,18.00
2011,07,11,20,30,18.00
2011,07,11,20,31,18.00
2011,07,11,20,32,18.00
2011,07,11,20,33,18.00
2011,07,11,20,34,18.00
2011,07,11,20,35,18.00
2011,07,11,20,36,18.00
2011,07,11,20,37,18.00
2011,07,11,20,38,18.00
2011,07,11,20,39,17.90
2011,07,11,20,40,17.80
2011,07,11,20,41,17.70
2011,07,11,20,42,17.60
2011,07,11,20,43,17.50
2011,07,11,20,44,17.40
2011,07,11,20,45,17.30
2011,07,11,20,46,17.20
2011,07,11,20,47,17.00
2011,07,11,20,48,17.00
2011,07,11,20,49,16.90
2011,07,11,20,50,16.80
2011,07,11,20,51,16.80
2011,07,11,20,52,16.70
2011,07,11,20,53,16.70
2011,07,11,20,54,16.70
2011,07,11,20,55,16.70
2011,07,11,20,56,16.70
2011,07,11,20,57,16.70
2011,07,11,20,58,16.70
2011,07,11,20,59,16.70
2011,07,11,21,00,16.70
2011,07,11,21,01,16.70
2011,07,11,21,02,16.70
2011,07,11,21,03,16.70
2011,07,11,21,04,16.60
2011,07,11,21,05,16.60
2011,07,11,21,06,16.60
2011,07,11,21,07,16.60
2011,07,11,21,08,16.60
2011,07,11,21,09,16.60
2011,07,11,21,10,16.60
2011,07,11,21,11,16.60
2011,07,11,21,12,16.60
2011,07,11,21,13,16.60
2011,07,11,21,14,16.60
2011,07,11,21,15,16.60
2011,07,11,21,16,16.60
2011,07,11,21,17,16.50
2011,07,11,21,18,16.60
2011,07,11,21,19,16.60
2011,07,11,21,20,16.60
2011,07,11,21,21,16.60
2011,07,11,21,22,16.60
2011,07,11,21,23,16.60
2011,07,11,21,24,16.60
2011,07,11,21,25,16.60
2011,07,11,21,26,16.60
2011,07,11,21,27,16.60
2011,07,11,21,28,16.60
2011,07,11,21,29,16.50
2011,07,11,21,30,16.50
2011,07,11,21,31,16.50
2011,07,11,21,32,16.50
2011,07,11,21,33,16.50
2011,07,11,21,34,16.50
2011,07,11,21,35,16.50
2011,07,11,21,36,16.50
2011,07,11,21,37,16.50
2011,07,11,21,38,16.50
2011,07,11,21,39,16.50
2011,07,11,21,40,16.50
2011,07,11,21,41,16.60
2011,07,11,21,42,16.60
2011,07,11,21,43,16.60
2011,07,11,21,44,16.50
2011,07,11,21,45,16.50
2011,07,11,21,46,16.50
2011,07,11,21,47,16.40
2011,07,11,21,48,16.40
2011,07,11,21,49,16.40
2011,07,11,21,50,16.40
2011,07,11,21,51,16.40
2011,07,11,21,52,16.40
2011,07,11,21,53,16.40
2011,07,11,21,54,16.40
2011,07,11,21,55,16.40
2011,07,11,21,56,16.40
2011,07,11,21,57,16.40
2011,07,11,21,58,16.40
2011,07,11,21,59,16.40
2011,07,11,22,00,16.40
2011,07,11,22,01,16.40
2011,07,11,22,02,16.40
2011,07,11,22,03,16.40
2011,07,11,22,04,16.40
2011,07,11,22,05,16.40
2011,07,11,22,06,16.40
2011,07,11,22,07,16.40
2011,07,11,22,08,16.40
2011,07,11,22,09,16.40
2011,07,11,22,10,16.40
2011,07,11,22,11,16.40
2011,07,11,22,12,16.40
2011,07,11,22,13,16.40
2011,07,11,22,14,16.40
2011,07,11,22,15,16.40
2011,07,11,22,16,16.30
2011,07,11,22,17,16.30
2011,07,11,22,18,16.30
2011,07,11,22,19,16.30
2011,07,11,22,20,16.30
2011,07,11,22,21,16.30
2011,07,11,22,22,16.30
2011,07,11,22,23,16.30
2011,07,11,22,24,16.20
2011,07,11,22,25,16.20
2011,07,11,22,26,16.20
2011,07,11,22,27,16.20
2011,07,11,22,28,16.20
2011,07,11,22,29,16.20
2011,07,11,22,30,16.20
2011,07,11,22,31,16.20
2011,07,11,22,32,16.20
2011,07,11,22,33,16.20
2011,07,11,22,34,16.10
2011,07,11,22,35,16.10
2011,07,11,22,36,16.10
2011,07,11,22,37,16.10
2011,07,11,22,38,16.10
2011,07,11,22,39,16.10
2011,07,11,22,40,16.10
2011,07,11,22,41,16.10
2011,07,11,22,42,16.10
2011,07,11,22,43,16.10
2011,07,11,22,44,16.10
2011,07,11,22,45,16.10
2011,07,11,22,46,16.10
2011,07,11,22,47,16.00
2011,07,11,22,48,16.00
2011,07,11,22,49,16.00
2011,07,11,22,50,16.00
2011,07,11,22,51,15.90
2011,07,11,22,52,15.90
2011,07,11,22,53,15.90
2011,07,11,22,54,15.80
2011,07,11,22,55,15.80
2011,07,11,22,56,15.80
2011,07,11,22,57,15.80
2011,07,11,22,58,15.80
2011,07,11,22,59,15.80
2011,07,11,23,00,15.80
2011,07,11,23,01,15.80
2011,07,11,23,02,15.80
2011,07,11,23,03,15.80
2011,07,11,23,04,15.80
2011,07,11,23,05,15.80
2011,07,11,23,06,15.90
2011,07,11,23,07,15.90
2011,07,11,23,08,16.00
2011,07,11,23,09,16.00
2011,07,11,23,10,16.10
2011,07,11,23,11,16.10
2011,07,11,23,12,16.20
2011,07,11,23,13,16.20
2011,07,11,23,14,16.30
2011,07,11,23,15,16.30
2011,07,11,23,16,16.30
2011,07,11,23,17,16.30
2011,07,11,23,18,16.40
2011,07,11,23,19,16.40
2011,07,11,23,20,16.40
2011,07,11,23,21,16.40
2011,07,11,23,22,16.40
2011,07,11,23,23,16.40
2011,07,11,23,24,16.40
2011,07,11,23,25,16.50
2011,07,11,23,26,16.50
2011,07,11,23,27,16.50
2011,07,11,23,28,16.50
2011,07,11,23,29,16.40
2011,07,11,23,30,16.40
2011,07,11,23,31,16.40
2011,07,11,23,32,16.40
2011,07,11,23,33,16.50
2011,07,11,23,34,16.50
2011,07,11,23,35,16.50
2011,07,11,23,36,16.50
2011,07,11,23,37,16.50
2011,07,11,23,38,16.50
2011,07,11,23,39,16.60
2011,07,11,23,40,16.60
2011,07,11,23,41,16.60
2011,07,11,23,42,16.60
2011,07,11,23,43,16.60
2011,07,11,23,44,16.60
2011,07,11,23,45,16.60
2011,07,11,23,46,16.60
2011,07,11,23,47,16.60
2011,07,11,23,48,16.60
2011,07,11,23,49,16.60
2011,07,11,23,50,16.60
2011,07,11,23,51,16.60
2011,07,11,23,52,16.60
2011,07,11,23,53,16.60
2011,07,11,23,54,16.60
2011,07,11,23,55,16.50
2011,07,11,23,56,16.60
2011,07,11,23,57,16.50
2011,07,11,23,58,16.50
2011,07,11,23,59,16.50
